Time,TemperatureF,DewpointF,PressureIn,WindDirection,WindDirectionDegrees,WindSpeedMPH,WindSpeedGustMPH,Humidity,HourlyPrecipIn,Conditions,Clouds,dailyrainin,SoftwareType,DateUTC
2013-05-07 00:01:00,40.6,39.6,29.92,NE,41,0.0,0.0,96,0.00,,,0.00,meteohub,2013-05-07 04:01:00,
2013-05-07 00:02:00,40.6,39.6,29.92,NE,41,0.0,0.0,96,0.00,,,0.00,meteohub,2013-05-07 04:02:00,
2013-05-07 00:07:00,40.3,39.2,29.91,NE,41,0.0,0.0,96,0.00,,,0.00,meteohub,2013-05-07 04:07:00,
2013-05-07 00:12:00,40.3,39.2,29.92,NE,41,0.0,0.0,96,0.00,,,0.00,meteohub,2013-05-07 04:12:00,
2013-05-07 00:17:00,40.3,39.2,29.92,NE,41,0.0,0.0,96,0.00,,,0.00,meteohub,2013-05-07 04:17:00,
2013-05-07 00:22:00,40.3,39.6,29.92,NE,41,0.0,0.0,97,0.00,,,0.00,meteohub,2013-05-07 04:22:00,
2013-05-07 00:27:00,40.3,39.6,29.92,NE,41,0.0,0.0,97,0.00,,,0.00,meteohub,2013-05-07 04:27:00,
2013-05-07 00:32:00,40.5,39.7,29.92,NE,41,0.0,0.0,97,0.00,,,0.00,meteohub,2013-05-07 04:32:00,
2013-05-07 00:37:00,40.6,39.9,29.92,NE,41,0.0,0.0,97,0.00,,,0.00,meteohub,2013-05-07 04:37:00,
2013-05-07 00:42:00,40.6,39.9,29.92,NE,41,0.0,0.0,97,0.00,,,0.00,meteohub,2013-05-07 04:42:00,
2013-05-07 00:47:00,40.6,39.9,29.91,NE,40,0.0,0.0,97,0.00,,,0.00,meteohub,2013-05-07 04:47:00,
2013-05-07 00:52:00,40.6,39.9,29.92,NE,40,0.0,0.0,97,0.00,,,0.00,meteohub,2013-05-07 04:52:00,
2013-05-07 00:57:00,40.5,39.7,29.91,NE,40,0.0,0.0,97,0.00,,,0.00,meteohub,2013-05-07 04:57:00,
2013-05-07 01:02:00,40.1,39.0,29.91,NE,40,0.0,0.0,96,0.00,,,0.00,meteohub,2013-05-07 05:02:00,
2013-05-07 01:07:00,39.7,38.7,29.91,NE,40,0.0,0.0,96,0.00,,,0.00,meteohub,2013-05-07 05:07:00,
2013-05-07 01:12:00,39.9,39.2,29.91,NE,41,0.0,0.0,97,0.00,,,0.00,meteohub,2013-05-07 05:12:00,
2013-05-07 01:17:00,40.1,39.4,29.91,NE,40,0.0,1.0,97,0.00,,,0.00,meteohub,2013-05-07 05:17:00,
2013-05-07 01:22:00,40.3,39.6,29.91,NE,39,0.0,1.0,97,0.00,,,0.00,meteohub,2013-05-07 05:22:00,
2013-05-07 01:27:00,39.9,39.2,29.91,NE,40,0.0,1.0,97,0.00,,,0.00,meteohub,2013-05-07 05:27:00,
2013-05-07 01:32:00,39.7,39.0,29.91,NE,40,0.0,1.0,97,0.00,,,0.00,meteohub,2013-05-07 05:32:00,
2013-05-07 01:37:00,39.7,39.0,29.91,NE,40,0.0,0.0,97,0.00,,,0.00,meteohub,2013-05-07 05:37:00,
2013-05-07 01:42:00,39.9,39.2,29.91,NE,39,0.0,0.0,97,0.00,,,0.00,meteohub,2013-05-07 05:42:00,
2013-05-07 01:47:00,39.9,39.2,29.91,NE,40,0.0,0.0,97,0.00,,,0.00,meteohub,2013-05-07 05:47:00,
2013-05-07 01:52:00,40.1,39.4,29.91,NE,40,0.0,0.0,97,0.00,,,0.00,meteohub,2013-05-07 05:52:00,
2013-05-07 01:57:00,39.9,39.2,29.91,NE,40,0.0,0.0,97,0.00,,,0.00,meteohub,2013-05-07 05:57:00,
2013-05-07 02:02:00,39.6,38.8,29.91,NE,40,0.0,0.0,97,0.00,,,0.00,meteohub,2013-05-07 06:02:00,
2013-05-07 02:07:00,39.4,38.7,29.91,NE,40,0.0,0.0,97,0.00,,,0.00,meteohub,2013-05-07 06:07:00,
2013-05-07 02:12:00,39.0,38.3,29.91,NE,40,0.0,0.0,97,0.00,,,0.00,meteohub,2013-05-07 06:12:00,
2013-05-07 02:17:00,38.7,37.9,29.91,NE,40,0.0,0.0,97,0.00,,,0.00,meteohub,2013-05-07 06:17:00,
2013-05-07 02:22:00,38.8,38.1,29.91,NE,39,0.0,0.0,97,0.00,,,0.00,meteohub,2013-05-07 06:22:00,
2013-05-07 02:27:00,38.8,38.1,29.90,NE,40,0.0,0.0,97,0.00,,,0.00,meteohub,2013-05-07 06:27:00,
2013-05-07 02:32:00,39.0,38.3,29.90,NE,40,0.0,0.0,97,0.00,,,0.00,meteohub,2013-05-07 06:32:00,
2013-05-07 02:37:00,39.0,38.3,29.90,NE,39,0.0,0.0,97,0.00,,,0.00,meteohub,2013-05-07 06:37:00,
2013-05-07 02:42:00,38.8,38.1,29.90,NE,39,0.0,0.0,97,0.00,,,0.00,meteohub,2013-05-07 06:42:00,
2013-05-07 02:47:00,38.8,38.1,29.90,NE,40,0.0,0.0,97,0.00,,,0.00,meteohub,2013-05-07 06:47:00,
2013-05-07 02:52:00,38.7,37.9,29.90,NE,39,1.0,0.0,97,0.00,,,0.00,meteohub,2013-05-07 06:52:00,
2013-05-07 02:57:00,38.1,37.0,29.90,NE,40,0.0,1.0,96,0.00,,,0.00,meteohub,2013-05-07 06:57:00,
2013-05-07 03:02:00,38.3,37.6,29.90,NE,40,0.0,1.0,97,0.00,,,0.00,meteohub,2013-05-07 07:02:00,
2013-05-07 03:07:00,38.5,37.8,29.90,NE,39,0.0,1.0,97,0.00,,,0.00,meteohub,2013-05-07 07:07:00,
2013-05-07 03:12:00,38.7,37.9,29.90,NE,40,0.0,1.0,97,0.00,,,0.00,meteohub,2013-05-07 07:12:00,
2013-05-07 03:17:00,38.7,37.9,29.90,NE,40,0.0,0.0,97,0.00,,,0.00,meteohub,2013-05-07 07:17:00,
2013-05-07 03:22:00,38.5,37.8,29.90,NE,40,0.0,0.0,97,0.00,,,0.00,meteohub,2013-05-07 07:22:00,
2013-05-07 03:27:00,38.5,37.8,29.90,NE,40,0.0,0.0,97,0.00,,,0.00,meteohub,2013-05-07 07:27:00,
2013-05-07 03:32:00,38.5,37.8,29.90,NE,40,0.0,0.0,97,0.00,,,0.00,meteohub,2013-05-07 07:32:00,
2013-05-07 03:37:00,38.3,37.6,29.90,NE,39,0.0,0.0,97,0.00,,,0.00,meteohub,2013-05-07 07:37:00,
2013-05-07 03:42:00,38.3,37.6,29.90,NE,40,0.0,0.0,97,0.00,,,0.00,meteohub,2013-05-07 07:42:00,
2013-05-07 03:47:00,38.3,37.6,29.90,NE,39,0.0,0.0,97,0.00,,,0.00,meteohub,2013-05-07 07:47:00,
2013-05-07 03:52:00,38.3,37.6,29.90,NE,39,0.0,0.0,97,0.00,,,0.00,meteohub,2013-05-07 07:52:00,
2013-05-07 03:58:00,38.5,37.8,29.90,NE,40,0.0,0.0,97,0.00,,,0.00,meteohub,2013-05-07 07:58:00,
2013-05-07 04:03:00,38.5,37.8,29.90,NE,39,0.0,0.0,97,0.00,,,0.00,meteohub,2013-05-07 08:03:00,
2013-05-07 04:08:00,38.1,37.4,29.89,NE,40,0.0,0.0,97,0.00,,,0.00,meteohub,2013-05-07 08:08:00,
2013-05-07 04:13:00,37.9,37.2,29.90,NE,40,0.0,0.0,97,0.00,,,0.00,meteohub,2013-05-07 08:13:00,
2013-05-07 04:18:00,37.8,37.0,29.90,NE,40,0.0,0.0,97,0.00,,,0.00,meteohub,2013-05-07 08:18:00,
2013-05-07 04:23:00,37.9,37.2,29.89,NE,39,0.0,0.0,97,0.00,,,0.00,meteohub,2013-05-07 08:23:00,
2013-05-07 04:28:00,37.9,37.4,29.90,NE,40,0.0,0.0,98,0.00,,,0.00,meteohub,2013-05-07 08:28:00,
2013-05-07 04:33:00,37.9,37.4,29.90,NE,40,0.0,0.0,98,0.00,,,0.00,meteohub,2013-05-07 08:33:00,
2013-05-07 04:38:00,38.1,37.6,29.89,NE,40,0.0,0.0,98,0.00,,,0.00,meteohub,2013-05-07 08:38:00,
2013-05-07 04:43:00,38.3,37.8,29.89,NE,40,0.0,0.0,98,0.00,,,0.00,meteohub,2013-05-07 08:43:00,
2013-05-07 04:48:00,38.1,37.6,29.89,NE,40,0.0,0.0,98,0.00,,,0.00,meteohub,2013-05-07 08:48:00,
2013-05-07 04:53:00,37.9,37.4,29.89,NE,39,0.0,0.0,98,0.00,,,0.00,meteohub,2013-05-07 08:53:00,
2013-05-07 04:58:00,38.1,37.6,29.89,NE,40,0.0,0.0,98,0.00,,,0.00,meteohub,2013-05-07 08:58:00,
2013-05-07 05:03:00,38.3,37.8,29.89,NE,40,0.0,0.0,98,0.00,,,0.00,meteohub,2013-05-07 09:03:00,
2013-05-07 05:08:00,38.3,37.8,29.89,NE,40,0.0,0.0,98,0.00,,,0.00,meteohub,2013-05-07 09:08:00,
2013-05-07 05:13:00,38.5,37.9,29.89,NE,39,0.0,0.0,98,0.00,,,0.00,meteohub,2013-05-07 09:13:00,
2013-05-07 05:18:00,38.5,37.9,29.89,NE,40,0.0,0.0,98,0.00,,,0.00,meteohub,2013-05-07 09:18:00,
2013-05-07 05:23:00,38.5,37.9,29.89,NE,40,0.0,0.0,98,0.00,,,0.00,meteohub,2013-05-07 09:23:00,
2013-05-07 05:28:00,38.5,37.9,29.89,NE,39,0.0,0.0,98,0.00,,,0.00,meteohub,2013-05-07 09:28:00,
2013-05-07 05:33:00,38.5,37.9,29.89,NE,40,0.0,0.0,98,0.00,,,0.00,meteohub,2013-05-07 09:33:00,
2013-05-07 05:38:00,38.5,37.9,29.90,NE,40,0.0,0.0,98,0.00,,,0.00,meteohub,2013-05-07 09:38:00,
2013-05-07 05:43:00,38.5,37.9,29.90,NE,40,0.0,0.0,98,0.00,,,0.00,meteohub,2013-05-07 09:43:00,
2013-05-07 05:48:00,38.5,37.9,29.90,NE,39,0.0,0.0,98,0.00,,,0.00,meteohub,2013-05-07 09:48:00,
2013-05-07 05:53:00,38.5,37.9,29.90,NE,40,0.0,0.0,98,0.00,,,0.00,meteohub,2013-05-07 09:53:00,
2013-05-07 05:58:00,38.3,37.8,29.90,NE,38,0.0,0.0,98,0.00,,,0.00,meteohub,2013-05-07 09:58:00,
2013-05-07 06:03:00,37.9,37.4,29.90,NE,40,0.0,0.0,98,0.00,,,0.00,meteohub,2013-05-07 10:03:00,
2013-05-07 06:08:00,37.9,37.4,29.91,NE,40,0.0,0.0,98,0.00,,,0.00,meteohub,2013-05-07 10:08:00,
2013-05-07 06:13:00,37.9,37.4,29.91,NE,39,0.0,0.0,98,0.00,,,0.00,meteohub,2013-05-07 10:13:00,
2013-05-07 06:18:00,37.9,37.4,29.91,NE,39,0.0,0.0,98,0.00,,,0.00,meteohub,2013-05-07 10:18:00,
2013-05-07 06:23:00,37.8,37.2,29.91,NE,40,0.0,0.0,98,0.00,,,0.00,meteohub,2013-05-07 10:23:00,
2013-05-07 06:28:00,37.6,37.0,29.91,NE,39,0.0,0.0,98,0.00,,,0.00,meteohub,2013-05-07 10:28:00,
2013-05-07 06:33:00,37.6,37.0,29.91,NE,40,0.0,0.0,98,0.00,,,0.00,meteohub,2013-05-07 10:33:00,
2013-05-07 06:38:00,37.6,37.0,29.91,NE,39,0.0,0.0,98,0.00,,,0.00,meteohub,2013-05-07 10:38:00,
2013-05-07 06:43:00,37.4,36.9,29.92,NE,39,0.0,0.0,98,0.00,,,0.00,meteohub,2013-05-07 10:43:00,
2013-05-07 06:48:00,37.2,36.7,29.92,NE,39,0.0,0.0,98,0.00,,,0.00,meteohub,2013-05-07 10:48:00,
2013-05-07 06:53:00,37.2,36.7,29.92,NE,39,0.0,0.0,98,0.00,,,0.00,meteohub,2013-05-07 10:53:00,
2013-05-07 06:58:00,37.8,37.2,29.92,NE,39,0.0,0.0,98,0.00,,,0.00,meteohub,2013-05-07 10:58:00,
2013-05-07 07:03:00,37.9,37.4,29.92,NE,40,0.0,0.0,98,0.00,,,0.00,meteohub,2013-05-07 11:03:00,
2013-05-07 07:08:00,38.1,37.6,29.93,NE,40,0.0,0.0,98,0.00,,,0.00,meteohub,2013-05-07 11:08:00,
2013-05-07 07:13:00,38.3,37.8,29.93,NE,40,0.0,0.0,98,0.00,,,0.00,meteohub,2013-05-07 11:13:00,
2013-05-07 07:18:00,38.7,38.1,29.93,NE,39,0.0,0.0,98,0.00,,,0.00,meteohub,2013-05-07 11:18:00,
2013-05-07 07:23:00,38.8,38.3,29.93,NE,40,0.0,0.0,98,0.00,,,0.00,meteohub,2013-05-07 11:23:00,
2013-05-07 07:28:00,39.4,38.8,29.93,NE,39,0.0,0.0,98,0.00,,,0.00,meteohub,2013-05-07 11:28:00,
2013-05-07 07:33:00,39.7,39.2,29.94,NE,39,0.0,0.0,98,0.00,,,0.00,meteohub,2013-05-07 11:33:00,
2013-05-07 07:38:00,40.3,39.7,29.93,NE,40,0.0,0.0,98,0.00,,,0.00,meteohub,2013-05-07 11:38:00,
2013-05-07 07:43:00,40.6,40.1,29.93,NE,39,0.0,0.0,98,0.00,,,0.00,meteohub,2013-05-07 11:43:00,
2013-05-07 07:48:00,41.0,40.5,29.94,NE,39,0.0,0.0,98,0.00,,,0.00,meteohub,2013-05-07 11:48:00,
2013-05-07 07:53:00,41.5,41.0,29.94,NE,40,0.0,0.0,98,0.00,,,0.00,meteohub,2013-05-07 11:53:00,
2013-05-07 07:58:00,42.1,41.5,29.94,NE,40,0.0,0.0,98,0.00,,,0.00,meteohub,2013-05-07 11:58:00,
2013-05-07 08:03:00,42.6,42.1,29.94,NE,39,0.0,0.0,98,0.00,,,0.00,meteohub,2013-05-07 12:03:00,
2013-05-07 08:08:00,43.5,43.0,29.94,NE,39,0.0,0.0,98,0.00,,,0.00,meteohub,2013-05-07 12:08:00,
2013-05-07 08:13:00,43.5,43.0,29.94,NE,40,0.0,0.0,98,0.00,,,0.00,meteohub,2013-05-07 12:13:00,
2013-05-07 08:18:00,43.9,43.3,29.94,NE,40,0.0,0.0,98,0.00,,,0.00,meteohub,2013-05-07 12:18:00,
2013-05-07 08:24:00,44.1,43.5,29.94,NE,39,0.0,0.0,98,0.00,,,0.00,meteohub,2013-05-07 12:24:00,
2013-05-07 08:29:00,44.4,43.9,29.94,NE,40,0.0,0.0,98,0.00,,,0.00,meteohub,2013-05-07 12:29:00,
2013-05-07 08:34:00,44.8,44.2,29.95,NE,40,0.0,0.0,98,0.00,,,0.00,meteohub,2013-05-07 12:34:00,
2013-05-07 08:39:00,45.0,44.4,29.95,NE,40,0.0,0.0,98,0.00,,,0.00,meteohub,2013-05-07 12:39:00,
2013-05-07 08:44:00,45.1,44.6,29.95,NNE,20,3.0,0.0,98,0.00,,,0.00,meteohub,2013-05-07 12:44:00,
2013-05-07 08:49:00,45.1,44.1,29.95,NNE,30,3.0,4.0,96,0.00,,,0.00,meteohub,2013-05-07 12:49:00,
2013-05-07 08:54:00,45.3,44.1,29.95,NNE,25,3.0,4.0,95,0.00,,,0.00,meteohub,2013-05-07 12:54:00,
2013-05-07 08:59:00,45.9,43.9,29.95,NE,44,0.0,4.0,93,0.00,,,0.00,meteohub,2013-05-07 12:59:00,
2013-05-07 09:04:00,46.9,45.0,29.95,NE,56,0.0,4.0,93,0.00,,,0.00,meteohub,2013-05-07 13:04:00,
2013-05-07 09:09:00,48.0,45.1,29.95,NNE,29,1.0,4.0,90,0.00,,,0.00,meteohub,2013-05-07 13:09:00,
2013-05-07 09:14:00,48.6,44.8,29.95,NNE,29,1.0,3.0,87,0.00,,,0.00,meteohub,2013-05-07 13:14:00,
2013-05-07 09:19:00,49.1,44.2,29.95,North,359,2.0,3.0,83,0.00,,,0.00,meteohub,2013-05-07 13:19:00,
2013-05-07 09:24:00,50.0,44.8,29.95,North,349,1.0,5.0,82,0.00,,,0.00,meteohub,2013-05-07 13:24:00,
2013-05-07 09:29:00,50.7,44.4,29.95,North,356,0.0,5.0,79,0.00,,,0.00,meteohub,2013-05-07 13:29:00,
2013-05-07 09:34:00,51.3,45.3,29.95,NNW,348,0.0,5.0,80,0.00,,,0.00,meteohub,2013-05-07 13:34:00,
2013-05-07 09:39:00,52.0,44.6,29.95,NE,53,1.0,3.0,76,0.00,,,0.00,meteohub,2013-05-07 13:39:00,
2013-05-07 09:44:00,52.2,44.8,29.95,NE,49,2.0,3.0,76,0.00,,,0.00,meteohub,2013-05-07 13:44:00,
2013-05-07 09:49:00,52.0,43.5,29.95,NW,306,1.0,4.0,73,0.00,,,0.00,meteohub,2013-05-07 13:49:00,
2013-05-07 09:54:00,52.2,43.7,29.95,NE,37,3.0,7.0,73,0.00,,,0.00,meteohub,2013-05-07 13:54:00,
2013-05-07 09:59:00,52.0,43.2,29.95,NNE,26,4.0,7.0,72,0.00,,,0.00,meteohub,2013-05-07 13:59:00,
2013-05-07 10:04:00,51.8,43.7,29.95,NNE,25,0.0,7.0,74,0.00,,,0.00,meteohub,2013-05-07 14:04:00,
2013-05-07 10:09:00,52.2,43.3,29.95,NNE,30,3.0,9.0,72,0.00,,,0.00,meteohub,2013-05-07 14:09:00,
2013-05-07 10:14:00,52.3,43.5,29.95,NNW,334,2.0,9.0,72,0.00,,,0.00,meteohub,2013-05-07 14:14:00,
2013-05-07 10:19:00,52.7,43.9,29.95,NNW,327,4.0,9.0,72,0.00,,,0.00,meteohub,2013-05-07 14:19:00,
2013-05-07 10:24:00,53.4,43.9,29.95,NNW,338,3.0,8.0,70,0.00,,,0.00,meteohub,2013-05-07 14:24:00,
2013-05-07 10:29:00,54.0,43.3,29.95,NNE,32,2.0,8.0,67,0.00,,,0.00,meteohub,2013-05-07 14:29:00,
2013-05-07 10:34:00,54.1,42.3,29.95,NNW,346,2.0,8.0,64,0.00,,,0.00,meteohub,2013-05-07 14:34:00,
2013-05-07 10:39:00,54.1,41.4,29.95,North,8,6.0,12.0,62,0.00,,,0.00,meteohub,2013-05-07 14:39:00,
2013-05-07 10:44:00,54.1,42.6,29.95,ENE,63,7.0,12.0,65,0.00,,,0.00,meteohub,2013-05-07 14:44:00,
2013-05-07 10:49:00,54.5,42.6,29.95,NNW,327,2.0,12.0,64,0.00,,,0.00,meteohub,2013-05-07 14:49:00,
2013-05-07 10:54:00,54.7,43.2,29.95,North,351,3.0,12.0,65,0.00,,,0.00,meteohub,2013-05-07 14:54:00,
2013-05-07 10:59:00,55.0,42.3,29.95,NE,42,4.0,12.0,62,0.00,,,0.00,meteohub,2013-05-07 14:59:00,
2013-05-07 11:04:00,55.6,43.2,29.95,NE,35,2.0,10.0,63,0.00,,,0.00,meteohub,2013-05-07 15:04:00,
2013-05-07 11:09:00,55.9,41.0,29.95,NE,42,4.0,10.0,57,0.00,,,0.00,meteohub,2013-05-07 15:09:00,
2013-05-07 11:14:00,55.8,40.8,29.96,ESE,105,2.0,9.0,57,0.00,,,0.00,meteohub,2013-05-07 15:14:00,
2013-05-07 11:19:00,56.1,41.2,29.95,NNE,33,6.0,8.0,57,0.00,,,0.00,meteohub,2013-05-07 15:19:00,
2013-05-07 11:24:00,55.8,40.8,29.96,NNE,19,2.0,8.0,57,0.00,,,0.00,meteohub,2013-05-07 15:24:00,
2013-05-07 11:29:00,55.9,40.5,29.96,South,181,2.0,11.0,56,0.00,,,0.00,meteohub,2013-05-07 15:29:00,
2013-05-07 11:34:00,56.1,40.1,29.96,WNW,291,2.0,11.0,55,0.00,,,0.00,meteohub,2013-05-07 15:34:00,
2013-05-07 11:39:00,56.5,40.1,29.95,NE,35,0.0,10.0,54,0.00,,,0.00,meteohub,2013-05-07 15:39:00,
2013-05-07 11:44:00,56.8,38.8,29.95,South,191,2.0,10.0,51,0.00,,,0.00,meteohub,2013-05-07 15:44:00,
2013-05-07 11:49:00,57.0,38.5,29.96,NE,37,8.0,10.0,50,0.00,,,0.00,meteohub,2013-05-07 15:49:00,
2013-05-07 11:54:00,56.8,37.9,29.95,West,278,2.0,11.0,49,0.00,,,0.00,meteohub,2013-05-07 15:54:00,
2013-05-07 12:00:00,57.6,38.5,29.95,NNE,32,3.0,11.0,49,0.00,,,0.00,meteohub,2013-05-07 16:00:00,
2013-05-07 12:05:00,58.3,35.2,29.95,NNW,334,0.0,11.0,42,0.00,,,0.00,meteohub,2013-05-07 16:05:00,
2013-05-07 12:10:00,58.8,35.2,29.95,WNW,300,0.0,11.0,41,0.00,,,0.00,meteohub,2013-05-07 16:10:00,
2013-05-07 12:15:00,59.5,36.5,29.95,ENE,76,1.0,11.0,42,0.00,,,0.00,meteohub,2013-05-07 16:15:00,
2013-05-07 12:20:00,60.4,36.7,29.95,WNW,287,1.0,9.0,41,0.00,,,0.00,meteohub,2013-05-07 16:20:00,
2013-05-07 12:25:00,60.4,36.0,29.95,East,98,0.0,5.0,40,0.00,,,0.00,meteohub,2013-05-07 16:25:00,
2013-05-07 12:30:00,59.7,36.0,29.95,NNE,29,8.0,8.0,41,0.00,,,0.00,meteohub,2013-05-07 16:30:00,
2013-05-07 12:35:00,59.2,34.9,29.95,NE,52,1.0,5.0,40,0.00,,,0.00,meteohub,2013-05-07 16:35:00,
2013-05-07 12:40:00,58.5,36.0,29.95,South,190,2.0,8.0,43,0.00,,,0.00,meteohub,2013-05-07 16:40:00,
2013-05-07 12:45:00,58.3,38.1,29.94,North,356,0.0,8.0,47,0.00,,,0.00,meteohub,2013-05-07 16:45:00,
2013-05-07 12:50:00,58.6,40.6,29.94,North,351,4.0,6.0,51,0.00,,,0.00,meteohub,2013-05-07 16:50:00,
2013-05-07 12:55:00,59.0,38.8,29.94,NE,50,3.0,7.0,47,0.00,,,0.00,meteohub,2013-05-07 16:55:00,
2013-05-07 13:00:00,59.0,39.4,29.94,WNW,294,0.0,10.0,48,0.00,,,0.00,meteohub,2013-05-07 17:00:00,
2013-05-07 13:05:00,59.7,38.8,29.94,SSE,156,3.0,10.0,46,0.00,,,0.00,meteohub,2013-05-07 17:05:00,
2013-05-07 13:10:00,59.5,37.6,29.94,ENE,71,0.0,9.0,44,0.00,,,0.00,meteohub,2013-05-07 17:10:00,
2013-05-07 13:15:00,59.0,37.8,29.94,NNE,24,0.0,7.0,45,0.00,,,0.00,meteohub,2013-05-07 17:15:00,
2013-05-07 13:20:00,58.8,39.2,29.94,NNE,22,0.0,6.0,48,0.00,,,0.00,meteohub,2013-05-07 17:20:00,
2013-05-07 13:25:00,59.0,43.7,29.94,WSW,252,1.0,4.0,57,0.00,,,0.00,meteohub,2013-05-07 17:25:00,
2013-05-07 13:30:00,58.6,43.9,29.94,WNW,297,2.0,3.0,58,0.00,,,0.00,meteohub,2013-05-07 17:30:00,
2013-05-07 13:35:00,58.3,44.4,29.94,WSW,250,1.0,3.0,60,0.00,,,0.00,meteohub,2013-05-07 17:35:00,
2013-05-07 13:40:00,57.9,45.0,29.94,WNW,289,0.0,3.0,62,0.00,,,0.00,meteohub,2013-05-07 17:40:00,
2013-05-07 13:45:00,57.9,44.6,29.94,West,265,0.0,3.0,61,0.00,,,0.00,meteohub,2013-05-07 17:45:00,
2013-05-07 13:50:00,57.7,44.4,29.94,WNW,300,0.0,3.0,61,0.00,,,0.00,meteohub,2013-05-07 17:50:00,
2013-05-07 13:55:00,58.3,45.0,29.94,West,270,1.0,3.0,61,0.00,,,0.00,meteohub,2013-05-07 17:55:00,
2013-05-07 14:00:00,59.0,45.1,29.94,SW,218,2.0,4.0,60,0.00,,,0.00,meteohub,2013-05-07 18:00:00,
2013-05-07 14:05:00,59.7,45.3,29.93,West,267,1.0,9.0,59,0.00,,,0.00,meteohub,2013-05-07 18:05:00,
2013-05-07 14:10:00,59.7,44.4,29.93,NW,308,1.0,9.0,57,0.00,,,0.00,meteohub,2013-05-07 18:10:00,
2013-05-07 14:15:00,59.5,44.8,29.93,South,183,1.0,8.0,58,0.00,,,0.00,meteohub,2013-05-07 18:15:00,
2013-05-07 14:20:00,59.7,45.0,29.93,WSW,251,4.0,8.0,58,0.00,,,0.00,meteohub,2013-05-07 18:20:00,
2013-05-07 14:25:00,59.7,45.3,29.93,WNW,283,2.0,7.0,59,0.00,,,0.00,meteohub,2013-05-07 18:25:00,
2013-05-07 14:30:00,59.5,44.2,29.93,SW,214,1.0,7.0,57,0.00,,,0.00,meteohub,2013-05-07 18:30:00,
2013-05-07 14:35:00,60.1,44.8,29.93,SE,145,2.0,7.0,57,0.00,,,0.00,meteohub,2013-05-07 18:35:00,
2013-05-07 14:40:00,60.3,44.4,29.92,WNW,289,3.0,8.0,56,0.00,,,0.00,meteohub,2013-05-07 18:40:00,
2013-05-07 14:45:00,60.1,44.4,29.92,West,260,0.0,8.0,56,0.00,,,0.00,meteohub,2013-05-07 18:45:00,
2013-05-07 14:50:00,60.1,43.9,29.92,West,271,1.0,8.0,55,0.00,,,0.00,meteohub,2013-05-07 18:50:00,
2013-05-07 14:55:00,60.1,44.4,29.92,North,350,1.0,3.0,56,0.00,,,0.00,meteohub,2013-05-07 18:55:00,
2013-05-07 15:00:00,60.3,44.1,29.92,WSW,248,3.0,3.0,55,0.00,,,0.00,meteohub,2013-05-07 19:00:00,
2013-05-07 15:05:00,60.6,43.9,29.92,West,278,1.0,4.0,54,0.00,,,0.00,meteohub,2013-05-07 19:05:00,
2013-05-07 15:10:00,61.0,43.7,29.92,West,273,0.0,7.0,53,0.00,,,0.00,meteohub,2013-05-07 19:10:00,
2013-05-07 15:15:00,61.0,43.2,29.91,West,266,0.0,7.0,52,0.00,,,0.00,meteohub,2013-05-07 19:15:00,
2013-05-07 15:21:00,61.0,43.2,29.91,SSE,167,0.0,7.0,52,0.00,,,0.00,meteohub,2013-05-07 19:21:00,
2013-05-07 15:26:00,61.3,43.5,29.91,SSE,153,8.0,8.0,52,0.00,,,0.00,meteohub,2013-05-07 19:26:00,
2013-05-07 15:31:00,62.4,44.1,29.91,West,266,1.0,9.0,51,0.00,,,0.00,meteohub,2013-05-07 19:31:00,
2013-05-07 15:36:00,63.0,44.1,29.91,NW,316,3.0,9.0,50,0.00,,,0.00,meteohub,2013-05-07 19:36:00,
2013-05-07 15:41:00,62.4,44.1,29.91,West,278,1.0,9.0,51,0.00,,,0.00,meteohub,2013-05-07 19:41:00,
2013-05-07 15:46:00,61.3,43.0,29.91,West,265,0.0,6.0,51,0.00,,,0.00,meteohub,2013-05-07 19:46:00,
2013-05-07 15:51:00,61.2,43.3,29.91,West,259,0.0,6.0,52,0.00,,,0.00,meteohub,2013-05-07 19:51:00,
2013-05-07 15:56:00,61.0,44.2,29.91,WNW,302,4.0,4.0,54,0.00,,,0.00,meteohub,2013-05-07 19:56:00,
2013-05-07 16:01:00,60.6,44.4,29.91,West,268,1.0,5.0,55,0.00,,,0.00,meteohub,2013-05-07 20:01:00,
2013-05-07 16:06:00,60.6,43.9,29.91,WNW,290,0.0,5.0,54,0.00,,,0.00,meteohub,2013-05-07 20:06:00,
2013-05-07 16:11:00,60.6,43.9,29.91,West,262,3.0,5.0,54,0.00,,,0.00,meteohub,2013-05-07 20:11:00,
2013-05-07 16:16:00,60.3,43.5,29.92,West,262,1.0,3.0,54,0.00,,,0.00,meteohub,2013-05-07 20:16:00,
2013-05-07 16:21:00,60.1,43.3,29.92,WNW,283,4.0,4.0,54,0.00,,,0.00,meteohub,2013-05-07 20:21:00,
2013-05-07 16:26:00,59.7,43.0,29.92,NW,311,1.0,5.0,54,0.00,,,0.00,meteohub,2013-05-07 20:26:00,
2013-05-07 16:31:00,59.5,43.3,29.92,West,278,0.0,5.0,55,0.00,,,0.00,meteohub,2013-05-07 20:31:00,
2013-05-07 16:36:00,59.7,44.1,29.92,WNW,295,1.0,5.0,56,0.00,,,0.00,meteohub,2013-05-07 20:36:00,
2013-05-07 16:41:00,59.5,43.9,29.92,SSW,212,0.0,4.0,56,0.00,,,0.00,meteohub,2013-05-07 20:41:00,
2013-05-07 16:46:00,59.7,44.1,29.92,West,277,1.0,4.0,56,0.00,,,0.00,meteohub,2013-05-07 20:46:00,
2013-05-07 16:51:00,59.9,44.6,29.91,SSW,194,4.0,4.0,57,0.00,,,0.00,meteohub,2013-05-07 20:51:00,
2013-05-07 16:56:00,60.1,44.8,29.92,WSW,256,1.0,6.0,57,0.00,,,0.00,meteohub,2013-05-07 20:56:00,
2013-05-07 17:01:00,59.9,45.1,29.92,West,270,0.0,6.0,58,0.00,,,0.00,meteohub,2013-05-07 21:01:00,
2013-05-07 17:06:00,60.1,45.7,29.92,NW,306,0.0,6.0,59,0.00,,,0.00,meteohub,2013-05-07 21:06:00,
2013-05-07 17:11:00,60.6,45.3,29.92,West,259,0.0,5.0,57,0.00,,,0.00,meteohub,2013-05-07 21:11:00,
2013-05-07 17:16:00,60.3,44.4,29.92,West,259,0.0,5.0,56,0.00,,,0.00,meteohub,2013-05-07 21:16:00,
2013-05-07 17:21:00,60.1,44.8,29.91,WNW,291,0.0,3.0,57,0.00,,,0.00,meteohub,2013-05-07 21:21:00,
2013-05-07 17:26:00,60.1,45.3,29.91,NW,306,0.0,2.0,58,0.00,,,0.00,meteohub,2013-05-07 21:26:00,
2013-05-07 17:31:00,60.1,45.7,29.92,NNE,29,0.0,2.0,59,0.00,,,0.00,meteohub,2013-05-07 21:31:00,
2013-05-07 17:36:00,60.3,45.9,29.92,WNW,293,1.0,2.0,59,0.00,,,0.00,meteohub,2013-05-07 21:36:00,
2013-05-07 17:41:00,60.1,45.7,29.93,SW,229,2.0,3.0,59,0.00,,,0.00,meteohub,2013-05-07 21:41:00,
2013-05-07 17:46:00,59.7,45.9,29.93,WSW,257,1.0,5.0,60,0.00,,,0.00,meteohub,2013-05-07 21:46:00,
2013-05-07 17:51:00,59.9,46.0,29.93,WSW,252,1.0,5.0,60,0.00,,,0.00,meteohub,2013-05-07 21:51:00,
2013-05-07 17:56:00,59.7,45.3,29.93,WNW,293,0.0,5.0,59,0.00,,,0.00,meteohub,2013-05-07 21:56:00,
2013-05-07 18:01:00,59.4,45.5,29.93,WSW,252,3.0,4.0,60,0.00,,,0.00,meteohub,2013-05-07 22:01:00,
2013-05-07 18:06:00,58.8,45.3,29.93,WSW,239,0.0,6.0,61,0.00,,,0.00,meteohub,2013-05-07 22:06:00,
2013-05-07 18:11:00,58.6,46.0,29.93,WNW,293,0.0,6.0,63,0.00,,,0.00,meteohub,2013-05-07 22:11:00,
2013-05-07 18:16:00,57.9,45.9,29.93,North,357,0.0,8.0,64,0.00,,,0.00,meteohub,2013-05-07 22:16:00,
2013-05-07 18:21:00,57.6,46.2,29.93,NNW,338,0.0,8.0,66,0.00,,,0.00,meteohub,2013-05-07 22:21:00,
2013-05-07 18:27:00,57.0,46.6,29.93,NE,35,0.0,8.0,68,0.00,,,0.00,meteohub,2013-05-07 22:27:00,
2013-05-07 18:31:00,56.7,46.2,29.93,NNE,30,0.0,4.0,68,0.00,,,0.00,meteohub,2013-05-07 22:31:00,
2013-05-07 18:36:00,56.3,47.5,29.93,NE,46,0.0,4.0,72,0.00,,,0.00,meteohub,2013-05-07 22:36:00,
2013-05-07 18:42:00,56.1,47.7,29.93,NE,41,0.0,2.0,73,0.00,,,0.00,meteohub,2013-05-07 22:42:00,
2013-05-07 18:47:00,56.1,47.3,29.93,NE,41,0.0,1.0,72,0.00,,,0.00,meteohub,2013-05-07 22:47:00,
2013-05-07 18:52:00,55.9,46.2,29.93,NE,43,1.0,0.0,70,0.00,,,0.00,meteohub,2013-05-07 22:52:00,
2013-05-07 18:57:00,55.9,47.1,29.93,North,356,0.0,1.0,72,0.00,,,0.00,meteohub,2013-05-07 22:57:00,
2013-05-07 19:02:00,55.9,47.5,29.93,North,355,0.0,1.0,73,0.00,,,0.00,meteohub,2013-05-07 23:02:00,
2013-05-07 19:07:00,55.8,46.9,29.94,North,8,0.0,1.0,72,0.00,,,0.00,meteohub,2013-05-07 23:07:00,
2013-05-07 19:12:00,55.8,48.0,29.94,North,8,0.0,1.0,75,0.00,,,0.00,meteohub,2013-05-07 23:12:00,
2013-05-07 19:17:00,55.6,48.6,29.94,North,8,0.0,1.0,77,0.00,,,0.00,meteohub,2013-05-07 23:17:00,
2013-05-07 19:22:00,55.6,47.8,29.94,North,8,0.0,1.0,75,0.00,,,0.00,meteohub,2013-05-07 23:22:00,
2013-05-07 19:27:00,55.4,47.7,29.95,North,9,1.0,2.0,75,0.00,,,0.00,meteohub,2013-05-07 23:27:00,
2013-05-07 19:32:00,55.4,48.4,29.95,NW,316,2.0,3.0,77,0.00,,,0.00,meteohub,2013-05-07 23:32:00,
2013-05-07 19:37:00,55.0,48.4,29.96,NE,37,5.0,7.0,78,0.00,,,0.00,meteohub,2013-05-07 23:37:00,
2013-05-07 19:42:00,54.7,48.4,29.96,ENE,60,1.0,9.0,79,0.00,,,0.00,meteohub,2013-05-07 23:42:00,
2013-05-07 19:47:00,54.5,48.2,29.96,NE,40,4.0,9.0,79,0.00,,,0.00,meteohub,2013-05-07 23:47:00,
2013-05-07 19:52:00,54.3,47.7,29.96,NNE,24,4.0,9.0,78,0.00,,,0.00,meteohub,2013-05-07 23:52:00,
2013-05-07 19:57:00,54.1,47.1,29.96,NNE,23,5.0,7.0,77,0.00,,,0.00,meteohub,2013-05-07 23:57:00,
2013-05-07 20:02:00,54.1,47.1,29.96,NE,53,0.0,8.0,77,0.00,,,0.00,meteohub,2013-05-08 00:02:00,
2013-05-07 20:07:00,54.0,47.3,29.97,NNW,342,1.0,8.0,78,0.00,,,0.00,meteohub,2013-05-08 00:07:00,
2013-05-07 20:12:00,53.8,47.5,29.97,ENE,57,0.0,8.0,79,0.00,,,0.00,meteohub,2013-05-08 00:12:00,
2013-05-07 20:17:00,53.4,46.8,29.97,ENE,74,2.0,3.0,78,0.00,,,0.00,meteohub,2013-05-08 00:17:00,
2013-05-07 20:22:00,53.4,47.1,29.97,NNE,33,0.0,5.0,79,0.00,,,0.00,meteohub,2013-05-08 00:22:00,
2013-05-07 20:27:00,53.2,47.3,29.97,NE,53,0.0,5.0,80,0.00,,,0.00,meteohub,2013-05-08 00:27:00,
2013-05-07 20:32:00,53.1,46.8,29.97,NE,40,1.0,5.0,79,0.00,,,0.00,meteohub,2013-05-08 00:32:00,
2013-05-07 20:37:00,53.1,47.1,29.97,NE,43,0.0,1.0,80,0.00,,,0.00,meteohub,2013-05-08 00:37:00,
2013-05-07 20:42:00,52.9,46.9,29.97,ENE,70,2.0,2.0,80,0.00,,,0.00,meteohub,2013-05-08 00:42:00,
2013-05-07 20:47:00,52.9,47.3,29.97,NE,35,0.0,3.0,81,0.00,,,0.00,meteohub,2013-05-08 00:47:00,
2013-05-07 20:52:00,52.5,46.9,29.97,ENE,59,0.0,3.0,81,0.00,,,0.00,meteohub,2013-05-08 00:52:00,
2013-05-07 20:57:00,52.5,47.1,29.98,ENE,59,0.0,3.0,82,0.00,,,0.00,meteohub,2013-05-08 00:57:00,
2013-05-07 21:02:00,52.3,46.9,29.98,ENE,61,0.0,2.0,82,0.00,,,0.00,meteohub,2013-05-08 01:02:00,
2013-05-07 21:07:00,52.2,47.1,29.98,East,98,0.0,0.0,83,0.00,,,0.00,meteohub,2013-05-08 01:07:00,
2013-05-07 21:12:00,52.2,47.1,29.98,East,98,0.0,1.0,83,0.00,,,0.00,meteohub,2013-05-08 01:12:00,
2013-05-07 21:17:00,52.0,46.9,29.98,East,99,0.0,1.0,83,0.00,,,0.00,meteohub,2013-05-08 01:17:00,
2013-05-07 21:22:00,51.8,47.1,29.98,East,99,0.0,1.0,84,0.00,,,0.00,meteohub,2013-05-08 01:22:00,
2013-05-07 21:27:00,51.6,46.9,29.98,East,99,0.0,0.0,84,0.00,,,0.00,meteohub,2013-05-08 01:27:00,
2013-05-07 21:32:00,51.4,47.1,29.98,East,98,0.0,0.0,85,0.00,,,0.00,meteohub,2013-05-08 01:32:00,
2013-05-07 21:37:00,51.3,46.9,29.98,SSE,150,0.0,0.0,85,0.00,,,0.00,meteohub,2013-05-08 01:37:00,
2013-05-07 21:42:00,51.3,46.9,29.98,SSE,150,0.0,0.0,85,0.00,,,0.00,meteohub,2013-05-08 01:42:00,
2013-05-07 21:47:00,51.3,46.9,29.98,SSE,150,0.0,0.0,85,0.00,,,0.00,meteohub,2013-05-08 01:47:00,
2013-05-07 21:52:00,51.1,47.1,29.99,SSE,150,0.0,0.0,86,0.00,,,0.00,meteohub,2013-05-08 01:52:00,
2013-05-07 21:57:00,50.9,46.9,29.99,SSE,149,0.0,0.0,86,0.00,,,0.00,meteohub,2013-05-08 01:57:00,
2013-05-07 22:02:00,50.5,46.6,29.99,SSE,150,0.0,0.0,86,0.00,,,0.00,meteohub,2013-05-08 02:02:00,
2013-05-07 22:07:00,50.4,46.6,29.99,SSE,150,0.0,0.0,87,0.00,,,0.00,meteohub,2013-05-08 02:07:00,
2013-05-07 22:12:00,49.8,46.4,29.99,SSE,149,0.0,0.0,88,0.00,,,0.00,meteohub,2013-05-08 02:12:00,
2013-05-07 22:17:00,49.8,46.8,29.99,SSE,151,0.0,0.0,89,0.00,,,0.00,meteohub,2013-05-08 02:17:00,
2013-05-07 22:22:00,49.6,46.6,29.99,SSE,150,0.0,0.0,89,0.00,,,0.00,meteohub,2013-05-08 02:22:00,
2013-05-07 22:27:00,49.6,46.6,29.99,SSE,150,0.0,0.0,89,0.00,,,0.00,meteohub,2013-05-08 02:27:00,
2013-05-07 22:32:00,49.5,46.4,29.99,SSE,151,0.0,0.0,89,0.00,,,0.00,meteohub,2013-05-08 02:32:00,
2013-05-07 22:37:00,49.3,46.2,29.99,SSE,150,0.0,0.0,89,0.00,,,0.00,meteohub,2013-05-08 02:37:00,
2013-05-07 22:42:00,48.9,45.9,29.99,SSE,150,0.0,0.0,89,0.00,,,0.00,meteohub,2013-05-08 02:42:00,
2013-05-07 22:47:00,48.6,45.7,29.99,SSE,151,0.0,0.0,90,0.00,,,0.00,meteohub,2013-05-08 02:47:00,
2013-05-07 22:52:00,48.4,45.5,29.99,SSE,150,0.0,0.0,90,0.00,,,0.00,meteohub,2013-05-08 02:52:00,
2013-05-07 22:57:00,48.0,45.1,29.99,SSE,150,0.0,0.0,90,0.00,,,0.00,meteohub,2013-05-08 02:57:00,
2013-05-07 23:02:00,48.0,45.5,29.99,SSE,150,0.0,0.0,91,0.00,,,0.00,meteohub,2013-05-08 03:02:00,
2013-05-07 23:07:00,48.0,45.5,29.99,SSE,150,0.0,0.0,91,0.00,,,0.00,meteohub,2013-05-08 03:07:00,
2013-05-07 23:12:00,47.8,45.3,29.99,SSE,151,0.0,0.0,91,0.00,,,0.00,meteohub,2013-05-08 03:12:00,
2013-05-07 23:17:00,47.8,45.3,29.99,SSE,150,0.0,0.0,91,0.00,,,0.00,meteohub,2013-05-08 03:17:00,
2013-05-07 23:22:00,47.7,45.5,29.99,SSE,150,0.0,0.0,92,0.00,,,0.00,meteohub,2013-05-08 03:22:00,
2013-05-07 23:27:00,47.7,45.5,29.99,SSE,150,0.0,0.0,92,0.00,,,0.00,meteohub,2013-05-08 03:27:00,
2013-05-07 23:32:00,47.8,45.7,29.98,SSE,149,0.0,0.0,92,0.00,,,0.00,meteohub,2013-05-08 03:32:00,
2013-05-07 23:37:00,47.8,45.7,29.98,SSE,149,0.0,0.0,92,0.00,,,0.00,meteohub,2013-05-08 03:37:00,
2013-05-07 23:42:00,47.8,45.7,29.98,SSE,150,0.0,0.0,92,0.00,,,0.00,meteohub,2013-05-08 03:42:00,
2013-05-07 23:47:00,47.8,45.7,29.98,SSE,149,0.0,0.0,92,0.00,,,0.00,meteohub,2013-05-08 03:47:00,
2013-05-07 23:52:00,47.7,45.5,29.98,SSE,149,0.0,0.0,92,0.00,,,0.00,meteohub,2013-05-08 03:52:00,
2013-05-07 23:57:00,47.7,45.5,29.98,SSE,149,0.0,0.0,92,0.00,,,0.00,meteohub,2013-05-08 03:57:00,